When you browse on this site, cookies collect data to enhance your experience and personalize the content and advertising you see.
Visit our Privacy Policy to learn more. By continuing to use the site, you agree to this use of cookies and data.
  • In Hungary
  • List of Countries
  • For 7 days
  • Water Temperature
  • Satellite Maps
  • Weather Map
  • News
  • Weather Widgets
  • user-avatar
    Login

    Hourly Weather Eskilstuna

    Today, 17 January, Thursday

    Time Temperature Precipitation Wind Pressure Humidity
    00:00 +1°C° 0.1 mm 2 mps 733 mmHg 96%
    01:00 -1°C° 0 mm 3 mps 733 mmHg 95%
    02:00 -4°C° 0 mm 3 mps 733 mmHg 93%
    03:00 -5°C° 0 mm 3 mps 733 mmHg 91%
    04:00 -6°C° 0 mm 3 mps 734 mmHg 89%
    05:00 -7°C° 0 mm 3 mps 734 mmHg 89%
    06:00 -7°C° 0 mm 3 mps 735 mmHg 89%
    07:00 -7°C° 0 mm 3 mps 735 mmHg 90%
    08:00 -7°C° 0 mm 3 mps 736 mmHg 89%
    09:00 -6°C° 0 mm 3 mps 737 mmHg 88%
    10:00 -5°C° 0 mm 3 mps 737 mmHg 88%
    11:00 -4°C° 0 mm 3 mps 738 mmHg 84%
    12:00 -4°C° 0 mm 3 mps 739 mmHg 80%
    13:00 -2°C° 0 mm 3 mps 740 mmHg 77%
    14:00 -4°C° 0 mm 3 mps 741 mmHg 79%
    15:00 -5°C° 0 mm 3 mps 742 mmHg 81%
    16:00 -6°C° 0 mm 3 mps 743 mmHg 83%
    17:00 -5°C° 0 mm 2 mps 743 mmHg 85%
    18:00 -6°C° 0 mm 2 mps 744 mmHg 87%
    19:00 -7°C° 0 mm 2 mps 745 mmHg 89%
    20:00 -7°C° 0 mm 2 mps 745 mmHg 88%
    21:00 -7°C° 0 mm 2 mps 746 mmHg 87%
    22:00 -7°C° 0 mm 2 mps 746 mmHg 86%
    23:00 -8°C° 0 mm 3 mps 746 mmHg 84%

    Tomorrow, 18 January, Friday

    Time Temperature Precipitation Wind Pressure Humidity
    00:00 -9°C° 0 mm 3 mps 747 mmHg 83%
    01:00 -9°C° 0 mm 3 mps 747 mmHg 81%
    02:00 -8°C° 0 mm 3 mps 747 mmHg 80%
    03:00 -8°C° 0 mm 3 mps 748 mmHg 78%
    04:00 -7°C° 0 mm 3 mps 748 mmHg 77%
    05:00 -7°C° 0 mm 3 mps 749 mmHg 75%
    06:00 -6°C° 0 mm 3 mps 749 mmHg 74%
    07:00 -6°C° 0 mm 3 mps 749 mmHg 73%
    08:00 -7°C° 0 mm 4 mps 750 mmHg 72%
    09:00 -7°C° 0 mm 4 mps 750 mmHg 72%
    10:00 -8°C° 0 mm 4 mps 751 mmHg 72%
    11:00 -7°C° 0 mm 4 mps 751 mmHg 68%
    12:00 -5°C° 0 mm 4 mps 752 mmHg 64%
    13:00 -4°C° 0 mm 3 mps 752 mmHg 60%
    14:00 -5°C° 0 mm 4 mps 752 mmHg 62%
    15:00 -5°C° 0 mm 4 mps 752 mmHg 64%
    16:00 -7°C° 0 mm 4 mps 753 mmHg 66%
    17:00 -7°C° 0 mm 4 mps 753 mmHg 69%
    18:00 -7°C° 0 mm 3 mps 753 mmHg 71%
    19:00 -7°C° 0 mm 3 mps 753 mmHg 74%
    20:00 -7°C° 0 mm 3 mps 753 mmHg 74%
    21:00 -7°C° 0 mm 3 mps 754 mmHg 74%
    22:00 -7°C° 0 mm 3 mps 754 mmHg 75%
    23:00 -7°C° 0 mm 3 mps 754 mmHg 78%

    Day after tomorrow, 19 January, Saturday

    Time Temperature Precipitation Wind Pressure Humidity
    00:00 -7°C° 0 mm 3 mps 755 mmHg 82%
    01:00 -7°C° 0 mm 3 mps 755 mmHg 86%
    02:00 -6°C° 0 mm 2 mps 755 mmHg 86%
    03:00 -6°C° 0 mm 2 mps 755 mmHg 86%
    04:00 -7°C° 0 mm 2 mps 755 mmHg 86%
    05:00 -7°C° 0 mm 2 mps 756 mmHg 84%
    06:00 -8°C° 0 mm 3 mps 756 mmHg 82%
    07:00 -8°C° 0 mm 3 mps 756 mmHg 80%
    08:00 -7°C° 0 mm 3 mps 756 mmHg 78%
    09:00 -7°C° 0 mm 3 mps 757 mmHg 75%
    10:00 -7°C° 0 mm 3 mps 757 mmHg 73%
    11:00 -6°C° 0 mm 3 mps 757 mmHg 73%
    12:00 -5°C° 0 mm 3 mps 756 mmHg 74%
    13:00 -5°C° 0 mm 3 mps 756 mmHg 74%
    14:00 -5°C° 0 mm 3 mps 756 mmHg 77%
    15:00 -5°C° 0 mm 3 mps 756 mmHg 81%
    16:00 -5°C° 0 mm 3 mps 756 mmHg 84%
    17:00 -4°C° 0 mm 2 mps 756 mmHg 85%
    18:00 -4°C° 0 mm 2 mps 756 mmHg 86%
    19:00 -4°C° 0 mm 2 mps 756 mmHg 87%
    20:00 -5°C° 0 mm 2 mps 756 mmHg 87%
    21:00 -5°C° 0 mm 2 mps 756 mmHg 87%
    22:00 -6°C° 0 mm 2 mps 756 mmHg 87%
    23:00 -6°C° 0 mm 2 mps 757 mmHg 85%

    20 January, Sunday

    Time Temperature Precipitation Wind Pressure Humidity
    00:00 -6°C° 0 mm 2 mps 757 mmHg 84%
    01:00 -4°C° 0 mm 1 mps 757 mmHg 83%
    02:00 -6°C° 0 mm 1 mps 757 mmHg 83%
    03:00 -7°C° 0 mm 2 mps 757 mmHg 83%
    04:00 -7°C° 0 mm 2 mps 757 mmHg 82%
    05:00 -7°C° 0 mm 2 mps 757 mmHg 82%
    06:00 -7°C° 0 mm 1 mps 758 mmHg 81%
    07:00 -7°C° 0 mm 1 mps 758 mmHg 80%
    08:00 -7°C° 0 mm 1 mps 758 mmHg 79%
    09:00 -7°C° 0 mm 1 mps 759 mmHg 78%
    10:00 -7°C° 0 mm 2 mps 759 mmHg 76%
    11:00 -7°C° 0 mm 2 mps 759 mmHg 75%
    12:00 -6°C° 0 mm 2 mps 759 mmHg 74%
    13:00 -5°C° 0 mm 2 mps 760 mmHg 72%
    14:00 -6°C° 0 mm 2 mps 760 mmHg 76%
    15:00 -7°C° 0 mm 2 mps 760 mmHg 79%
    16:00 -7°C° 0 mm 2 mps 760 mmHg 83%
    17:00 -8°C° 0 mm 2 mps 760 mmHg 83%
    18:00 -8°C° 0 mm 2 mps 760 mmHg 83%
    19:00 -8°C° 0 mm 2 mps 761 mmHg 83%
    20:00 -8°C° 0 mm 2 mps 761 mmHg 83%
    21:00 -8°C° 0 mm 2 mps 761 mmHg 82%
    22:00 -8°C° 0 mm 2 mps 762 mmHg 82%
    23:00 -9°C° 0 mm 2 mps 762 mmHg 82%

    21 January, Monday

    Time Temperature Precipitation Wind Pressure Humidity
    00:00 -9°C° 0 mm 2 mps 762 mmHg 82%
    01:00 -9°C° 0 mm 2 mps 762 mmHg 81%
    02:00 -9°C° 0 mm 2 mps 762 mmHg 81%
    03:00 -8°C° 0 mm 1 mps 762 mmHg 81%
    04:00 -8°C° 0 mm 1 mps 762 mmHg 81%
    05:00 -8°C° 0 mm 1 mps 762 mmHg 80%
    06:00 -8°C° 0 mm 1 mps 762 mmHg 79%
    07:00 -8°C° 0 mm 1 mps 762 mmHg 79%
    08:00 -8°C° 0 mm 1 mps 762 mmHg 78%
    09:00 -7°C° 0 mm 1 mps 762 mmHg 76%
    10:00 -7°C° 0 mm 1 mps 762 mmHg 75%
    11:00 -6°C° 0 mm 1 mps 762 mmHg 73%
    12:00 -4°C° 0 mm 1 mps 762 mmHg 71%
    13:00 -4°C° 0 mm 1 mps 761 mmHg 69%
    14:00 -4°C° 0 mm 1 mps 761 mmHg 74%
    15:00 -6°C° 0 mm 1 mps 761 mmHg 78%
    16:00 -6°C° 0 mm 1 mps 761 mmHg 83%
    17:00 -6°C° 0 mm 1 mps 761 mmHg 85%
    18:00 -7°C° 0 mm 1 mps 761 mmHg 87%
    19:00 -7°C° 0 mm 1 mps 761 mmHg 90%
    20:00 -7°C° 0 mm 1 mps 761 mmHg 90%
    21:00 -7°C° 0 mm 1 mps 761 mmHg 91%
    22:00 -7°C° 0 mm 1 mps 761 mmHg 91%
    23:00 -7°C° 0 mm 1 mps 761 mmHg 91%

    22 January, Tuesday

    Time Temperature Precipitation Wind Pressure Humidity
    00:00 -7°C° 0 mm 1 mps 760 mmHg 91%
    01:00 -7°C° 0 mm 1 mps 760 mmHg 91%
    02:00 -7°C° 0 mm 1 mps 760 mmHg 90%
    03:00 -7°C° 0 mm 1 mps 760 mmHg 90%
    04:00 -7°C° 0 mm 1 mps 760 mmHg 89%
    05:00 -7°C° 0 mm 1 mps 760 mmHg 89%
    06:00 -7°C° 0 mm 1 mps 760 mmHg 88%
    07:00 -7°C° 0 mm 1 mps 760 mmHg 88%
    08:00 -7°C° 0 mm 1 mps 760 mmHg 87%
    09:00 -7°C° 0 mm 1 mps 761 mmHg 86%
    10:00 -6°C° 0 mm 1 mps 761 mmHg 84%
    11:00 -6°C° 0 mm 1 mps 761 mmHg 83%
    12:00 -6°C° 0 mm 1 mps 761 mmHg 81%
    13:00 -4°C° 0 mm 1 mps 761 mmHg 80%
    14:00 -6°C° 0 mm 1 mps 761 mmHg 82%
    15:00 -6°C° 0 mm 1 mps 761 mmHg 84%
    16:00 -6°C° 0 mm 1 mps 761 mmHg 86%
    17:00 -6°C° 0 mm 1 mps 761 mmHg 86%
    18:00 -6°C° 0 mm 1 mps 761 mmHg 85%
    19:00 -6°C° 0 mm 1 mps 761 mmHg 85%
    20:00 -6°C° 0 mm 1 mps 762 mmHg 86%
    21:00 -6°C° 0 mm 1 mps 762 mmHg 86%
    22:00 -7°C° 0 mm 1 mps 762 mmHg 86%
    23:00 -7°C° 0 mm 1 mps 762 mmHg 87%
    Show more